Tracking 23583 objects as of 28-Jul-2021
HD Live streaming from Space Station
objects crossing your sky now

SL-6 R/B(2)

Track SL-6 R/B(2) now!


NORAD ID: 22241
Int'l Code: 1992-081D
Perigee: 4,588.9 km
Apogee: 35,287.9 km
Inclination: 68.9 °
Period: 707.8 minutes
Semi major axis: 26309 km
RCS: 5.1164 m2 (large)
Launch date: November 25, 1992
Source: Commonwealth of Independent States (former USSR) (CIS)
Launch site: PLESETSK MISSILE AND SPACE COMPLEX (PKMTR)

Note: This is a ROCKET BODY
aabbcc
Your satellite tracking list
Your tracking list is empty




NASA's NSSDC Master Catalog

Two Line Element Set (TLE):
1 22241U 92081D   21208.96982295  .00000834  00000-0  00000+0 0  9998
2 22241  68.9081 130.9639 5834215  67.7274 342.5727  2.03440045213027
Source of the keplerian elements: AFSPC